Satellite: NOAA-12
Catalog number: 21263
Epoch time:      10007.55859662
Element set:     402
Inclination:      098.7693 deg
RA of node:       020.7044 deg
Eccentricity:    0.0011531
Arg of perigee:   274.3395 deg
Mean anomaly:     085.6473 deg
Mean motion:   14.25610088 rev/day
Decay rate:        2.4e-07 rev/day^2
Epoch rev:           96951
Checksum:              295

Satellite: MET-3/5
Catalog number: 21655
Epoch time:      10006.82225271
Element set:     705
Inclination:      082.5543 deg
RA of node:       062.6498 deg
Eccentricity:    0.0014322
Arg of perigee:   036.8953 deg
Mean anomaly:     323.3167 deg
Mean motion:   13.17019260 rev/day
Decay rate:        5.1e-07 rev/day^2
Epoch rev:           88443
Checksum:              282

Satellite: MET-2/21
Catalog number: 22782
Epoch time:      10007.53829594
Element set:     662
Inclination:      082.5464 deg
RA of node:       019.8946 deg
Eccentricity:    0.0023538
Arg of perigee:   130.8200 deg
Mean anomaly:     229.5022 deg
Mean motion:   13.83639940 rev/day
Decay rate:       -1.6e-07 rev/day^2
Epoch rev:           82586
Checksum:              310

Satellite: OKEAN-4
Catalog number: 23317
Epoch time:      10006.83700406
Element set:    0121
Inclination:      082.5414 deg
RA of node:       144.4485 deg
Eccentricity:    0.0023688
Arg of perigee:   056.1848 deg
Mean anomaly:     304.1618 deg
Mean motion:   14.82754566 rev/day
Decay rate:       3.15e-06 rev/day^2
Epoch rev:           82254
Checksum:              283

Satellite: NOAA-14
Catalog number: 23455
Epoch time:      10007.49025134
Element set:     896
Inclination:      098.8928 deg
RA of node:       089.2737 deg
Eccentricity:    0.0009134
Arg of perigee:   336.5301 deg
Mean anomaly:     023.5455 deg
Mean motion:   14.13775994 rev/day
Decay rate:       -3.0e-07 rev/day^2
Epoch rev:           77479
Checksum:              324

Satellite: NOAA-15
Catalog number: 25338
Epoch time:      10007.12942681
Element set:     223
Inclination:      098.6051 deg
RA of node:       357.0703 deg
Eccentricity:    0.0010720
Arg of perigee:   179.2851 deg
Mean anomaly:     180.8330 deg
Mean motion:   14.24801223 rev/day
Decay rate:       1.22e-06 rev/day^2
Epoch rev:           60581
Checksum:              257

Satellite: RESURS
Catalog number: 25394
Epoch time:      10007.81469868
Element set:     400
Inclination:      098.3180 deg
RA of node:       034.5299 deg
Eccentricity:    0.0001520
Arg of perigee:   007.9720 deg
Mean anomaly:     352.1478 deg
Mean motion:   14.24192058 rev/day
Decay rate:       -1.3e-07 rev/day^2
Epoch rev:           59752
Checksum:              288

Satellite: FENGYUN1
Catalog number: 25730
Epoch time:      10006.44801719
Element set:    0942
Inclination:      098.7724 deg
RA of node:       335.7260 deg
Eccentricity:    0.0024388
Arg of perigee:   359.9766 deg
Mean anomaly:     000.1389 deg
Mean motion:   14.08167581 rev/day
Decay rate:       6.67e-06 rev/day^2
Epoch rev:           54892
Checksum:              325

Satellite: OKEAN-0
Catalog number: 25860
Epoch time:      10007.83021624
Element set:     881
Inclination:      097.8116 deg
RA of node:       346.1706 deg
Eccentricity:    0.0000536
Arg of perigee:   094.5756 deg
Mean anomaly:     265.5517 deg
Mean motion:   14.73606055 rev/day
Decay rate:        8.0e-08 rev/day^2
Epoch rev:           56328
Checksum:              293

Satellite: NOAA-16
Catalog number: 26536
Epoch time:      10007.08144104
Element set:     701
Inclination:      099.1779 deg
RA of node:       020.6971 deg
Eccentricity:    0.0011102
Arg of perigee:   071.5953 deg
Mean anomaly:     288.6419 deg
Mean motion:   14.12543914 rev/day
Decay rate:       2.29e-06 rev/day^2
Epoch rev:           47908
Checksum:              292

Satellite: NOAA-17
Catalog number: 27453
Epoch time:      10007.17628248
Element set:     702
Inclination:      098.4565 deg
RA of node:       063.9203 deg
Eccentricity:    0.0010911
Arg of perigee:   245.5726 deg
Mean anomaly:     114.4303 deg
Mean motion:   14.24121476 rev/day
Decay rate:       2.31e-06 rev/day^2
Epoch rev:           39178
Checksum:              279

Satellite: NOAA-18
Catalog number: 28654
Epoch time:      10007.15832710
Element set:     185
Inclination:      098.9331 deg
RA of node:       314.0451 deg
Eccentricity:    0.0014662
Arg of perigee:   144.8509 deg
Mean anomaly:     215.3633 deg
Mean motion:   14.11316228 rev/day
Decay rate:      -1.20e-06 rev/day^2
Epoch rev:           23872
Checksum:              272

Satellite: NOAA-19
Catalog number: 33591
Epoch time:      10007.74957038
Element set:     393
Inclination:      098.7724 deg
RA of node:       313.4252 deg
Eccentricity:    0.0014564
Arg of perigee:   026.9140 deg
Mean anomaly:     333.2739 deg
Mean motion:   14.11016803 rev/day
Decay rate:       4.05e-06 rev/day^2
Epoch rev:            4728
Checksum:              291

/EX
SB KEPS @ AMSAT  $ORB10007.M
Orbital Elements  10007.MISC

HR AMSAT ORBITAL ELEMENTS FOR MANNED AND MISCELLANEOUS SATELLITES
FROM WA5QGD FORT WORTH,TX January 7, 2010
Send Subscribe/unsubscribe to KEPS at 
http://www.amsat.org/mailman/listinfo/keps
BID: ORB10007.M
TO ALL RADIO AMATEURS BT

